Weather History for Oxford, CT

Change the Weather History Date:

Saturday, October 5, 2013

  Actual Average Record
Temperature  
Mean Temperature 66 °F -  
Max Temperature 73 °F 60 °F 82 °F (2007)
Min Temperature 59 °F 42 °F 32 °F (1996)
Cooling Degree Days 1    
Growing Degree Days 16 (Base 50)    
Moisture  
Dew Point 58 °F    
Average Humidity 83    
Maximum Humidity 94    
Minimum Humidity 69    
Precipitation  
Precipitation 0.00 in - - ()
Sea Level Pressure  
Sea Level Pressure 30.09 in    
Wind  
Wind Speed 3 mph (East)    
Max Wind Speed 9 mph    
Max Gust Speed -    
Visibility 8 miles    
Events      
Averages and records for this station are not official NWS values.
T = Trace of Precipitation, MM = Missing Value Source: NWS Daily Summary

Daily Weather History Graph

Daily Weather History Graph

Search for Another Location

Airport:

Trip Planner

Search our weather history database for the weather conditions in past years. The results will help you decide how hot, cold, wet, or windy it might be!

Date:

Astronomy

Oct. 05, 2013 Rise Set
Actual Time 6:53 AM EDT 6:27 PM EDT
Civil Twilight 6:26 AM EDT 6:54 PM EDT
Nautical Twilight 5:54 AM EDT 7:26 PM EDT
Astronomical Twilight 5:21 AM EDT 7:59 PM EDT
Moon 7:30 AM EDT (10/5) 6:43 PM EDT (10/5)
Length of Visible Light 12h 28m
Length of Day
11h 33m
New Moon, 0% of the Moon is Illuminated
Oct 5
New Moon
Oct 11
First Quarter
Oct 18
Full
Oct 26
Last Quarter
Nov 3
New

Hourly Weather History & Observations

Time (EDT) Temp. Dew Point Humidity Pressure Visibility Wind Dir Wind Speed Gust Speed Precip Events Conditions
12:15 AM 60.8 °F 55.4 °F 82% 30.07 in 10.0 mi North 3.5 mph - N/A   Overcast
12:35 AM 60.8 °F 55.4 °F 82% 30.07 in 10.0 mi ENE 3.5 mph - N/A   Overcast
12:55 AM 60.8 °F 55.4 °F 82% 30.06 in 10.0 mi ENE 4.6 mph - N/A   Scattered Clouds
1:15 AM 59.0 °F 55.4 °F 88% 30.07 in 10.0 mi ENE 3.5 mph - N/A   Partly Cloudy
1:35 AM 59.0 °F 55.4 °F 88% 30.08 in 10.0 mi NNE 4.6 mph - N/A   Mostly Cloudy
1:55 AM 59.0 °F 55.4 °F 88% 30.08 in 10.0 mi NNE 4.6 mph - N/A   Overcast
2:15 AM 59.0 °F 55.4 °F 88% 30.07 in 10.0 mi NE 3.5 mph - N/A   Mostly Cloudy
2:35 AM 59.0 °F 53.6 °F 82% 30.06 in 10.0 mi NE 3.5 mph - N/A   Overcast
2:55 AM 59.0 °F 53.6 °F 82% 30.07 in 10.0 mi NNE 4.6 mph - N/A   Overcast
3:15 AM 59.0 °F 55.4 °F 88% 30.07 in 10.0 mi North 3.5 mph - N/A   Overcast
3:35 AM 59.0 °F 55.4 °F 88% 30.07 in 10.0 mi Calm Calm - N/A   Overcast
3:55 AM 59.0 °F 55.4 °F 88% 30.07 in 10.0 mi North 3.5 mph - N/A   Overcast
4:15 AM 59.0 °F 53.6 °F 82% 30.07 in 10.0 mi NNE 4.6 mph - N/A   Overcast
4:35 AM 59.0 °F 55.4 °F 88% 30.08 in 10.0 mi Calm Calm - N/A   Overcast
4:55 AM 60.8 °F 55.4 °F 82% 30.08 in 10.0 mi North 4.6 mph - N/A   Overcast
5:15 AM 60.8 °F 53.6 °F 77% 30.08 in 10.0 mi NE 4.6 mph - N/A   Overcast
5:35 AM 60.8 °F 55.4 °F 82% 30.08 in 10.0 mi ENE 3.5 mph - N/A   Overcast
5:54 AM 60.8 °F 55.4 °F 82% 30.09 in 10.0 mi Calm Calm - N/A   Overcast
5:55 AM 60.8 °F 55.4 °F 82% 30.09 in 10.0 mi Calm Calm - N/A   Overcast
6:55 AM 60.8 °F 55.4 °F 82% 30.10 in 10.0 mi Calm Calm - N/A   Overcast
7:45 AM 60.8 °F 55.4 °F 82% 30.10 in 10.0 mi NNE 4.6 mph - N/A   Overcast
8:55 AM 60.8 °F 55.4 °F 82% 30.11 in 10.0 mi Variable 4.6 mph - N/A   Mostly Cloudy
9:50 AM 62.6 °F 55.4 °F 77% 30.12 in 10.0 mi Calm Calm - N/A   Overcast
11:45 AM 66.2 °F 59.0 °F 78% 30.11 in 10.0 mi Calm Calm - N/A   Mostly Cloudy
12:45 PM 69.8 °F 60.8 °F 73% 30.10 in 10.0 mi Calm Calm - N/A   Mostly Cloudy
1:45 PM 71.6 °F 60.8 °F 69% 30.07 in 10.0 mi Calm Calm - N/A   Mostly Cloudy
2:45 PM 73.4 °F 62.6 °F 69% 30.07 in 10.0 mi Calm Calm - N/A   Mostly Cloudy
3:45 PM 73.4 °F 62.6 °F 69% 30.08 in 10.0 mi Calm Calm - N/A   Mostly Cloudy
4:45 PM 73.4 °F 62.6 °F 69% 30.08 in 10.0 mi Variable 3.5 mph - N/A   Mostly Cloudy
5:45 PM 69.8 °F 62.6 °F 78% 30.07 in 10.0 mi South 9.2 mph - N/A   Partly Cloudy
6:45 PM 66.2 °F 60.8 °F 83% 30.08 in 6.0 mi South 5.8 mph - N/A   Haze
7:45 PM 64.4 °F 60.8 °F 88% 30.09 in 6.0 mi South 5.8 mph - N/A   Haze
9:15 PM 64.4 °F 59.0 °F 83% 30.12 in 8.0 mi Calm Calm - N/A   Overcast
9:35 PM 64.4 °F 59.0 °F 83% 30.11 in 8.0 mi SSE 4.6 mph - N/A   Mostly Cloudy
9:55 PM 64.4 °F 59.0 °F 83% 30.12 in 7.0 mi SSE 5.8 mph - N/A   Mostly Cloudy
10:15 PM 64.4 °F 59.0 °F 83% 30.12 in 5.0 mi South 4.6 mph - N/A   Overcast
10:35 PM 64.4 °F 60.8 °F 88% 30.12 in 3.0 mi SSE 3.5 mph - N/A   Overcast
10:55 PM 62.6 °F 60.8 °F 94% 30.12 in 1.2 mi South 5.8 mph - N/A   Overcast
11:15 PM 62.6 °F 60.8 °F 94% 30.11 in 0.8 mi South 4.6 mph - N/A   Overcast
11:35 PM 62.6 °F 60.8 °F 94% 30.11 in 0.5 mi South 3.5 mph - N/A   Overcast
11:55 PM 62.6 °F 60.8 °F 94% 30.13 in 0.8 mi South 4.6 mph - N/A   Overcast